Flag for Croatia Weather past 2 weeks in Dubrovnik, Croatia

Now
77 °F

Scattered clouds.


Feels Like: 79 °F
Forecast: 66 / 76 °F
Wind: 5 mph from North

Location: Dubrovnik / Cilipi

Current Time: Sep 2, 2014 at 12:08:47 PM

Latest Report: Sep 2, 2014 at 11:30 AM


Visibility: N/A

Pressure: 29.65 "Hg

Humidity: 57%

Dew point: 61 °F

Location of DubrovnikLocation

Historic Weather in Dubrovnik — Graph

°F

Dubrovnik temperature yesterday

Maximum temperature yesterday: 75 °F (at 11:30 AM)
Minimum temperature yesterday: 63 °F (at 10:00 PM)
Average temperature yesterday: 69 °F

Past Weeks' High & Low Weather Summary

 TemperatureHumidityPressure
High84 °F (Aug 28, 12:00 PM)100% (Aug 22, 5:00 AM)30.04 "Hg (Aug 22, 5:00 AM)
Low63 °F (Aug 26, 5:30 AM)37% (Aug 28, 9:00 PM)29.50 "Hg (Sep 1, 9:00 PM)
Average74 °F69%29.94 "Hg
* Reported Aug 18 11:00 AM — Sep 2 11:00 AM, Dubrovnik, Weather by CustomWeather, © 2014

Note: Actual official high and low records may vary slightly from our data, if they occured in-between our weather recording intervals... More about our weather records

Advertising

Dubrovnik weather history for previous 24 hours

 ConditionsComfort  
Time TempWeatherWind HumidityBarometerVisibility
11:00 AM
Sep 2
75 °FScattered clouds.2 mph57%29.65 "HgN/A
10:30 AM75 °FPassing clouds.6 mph61%29.65 "HgN/A
10:00 AM73 °FPassing clouds.9 mph65%29.62 "HgN/A
9:30 AM73 °FPassing clouds.8 mph65%29.62 "HgN/A
9:00 AM72 °FPassing clouds.6 mph69%29.62 "HgN/A
8:30 AM73 °FPassing clouds.5 mph61%29.62 "HgN/A
8:00 AM72 °FPassing clouds.3 mph61%29.62 "HgN/A
7:30 AM66 °FPassing clouds.5 mph78%29.59 "HgN/A
7:00 AM70 °FPassing clouds.7 mph64%29.59 "HgN/A
6:30 AM70 °FPassing clouds.10 mph64%29.59 "HgN/A
6:00 AM66 °FPassing clouds.5 mph78%29.59 "HgN/A
5:30 AM66 °FPassing clouds.6 mph78%29.59 "HgN/A
5:00 AM66 °FPassing clouds.6 mph78%29.59 "HgN/A
4:30 AM64 °FPassing clouds.3 mph88%29.59 "HgN/A
4:00 AM68 °FPassing clouds.8 mph69%29.59 "HgN/A
3:30 AM66 °FPassing clouds.9 mph78%29.62 "HgN/A
3:00 AM64 °FLight rain. Passing clouds.15 mph83%29.62 "HgN/A
2:30 AM64 °FLight rain. Overcast.16 mph83%29.65 "HgN/A
2:00 AM64 °FRain. Overcast.22 mph83%29.65 "Hg5 mi
1:30 AM64 °FRain. Overcast.20 mph83%29.68 "Hg5 mi
1:00 AM66 °FThundershowers. Partly cloudy.25 mph78%29.65 "HgN/A
12:30 AM66 °FThundershowers. Partly cloudy.24 mph83%29.65 "Hg4 mi
12:00 AM64 °FThunderstorms. Partly cloudy.23 mph88%29.65 "Hg3 mi
11:30 PM
Sep 1
64 °FThunderstorms. Partly cloudy.20 mph88%29.65 "Hg2 mi
11:00 PM64 °FThunderstorms. Passing clouds.23 mph88%29.65 "Hg2 mi
10:30 PM64 °FThunderstorms. Passing clouds.22 mph94%29.65 "Hg2 mi
10:00 PM63 °FStrong thunderstorms. Passing clouds.22 mph100%29.62 "Hg1 mi
9:30 PM64 °FStrong thunderstorms. Partly cloudy.26 mph100%29.53 "Hg1 mi
9:00 PM75 °FThunderstorms. Partly cloudy.33 mph83%29.50 "Hg6 mi
8:30 PM75 °FThundershowers. Passing clouds.25 mph89%29.53 "Hg6 mi
8:00 PM75 °FThundershowers. Partly sunny.22 mph89%29.56 "Hg6 mi
7:30 PM75 °FPartly sunny.21 mph89%29.56 "Hg5 mi
7:00 PM75 °FBroken clouds.18 mph89%29.56 "Hg5 mi
6:30 PM72 °FPartly sunny.14 mph88%29.59 "HgN/A
6:00 PM72 °FThunderstorms. Partly sunny.17 mph88%29.59 "HgN/A
5:30 PM70 °FThunderstorms. Partly sunny.30 mph83%29.53 "HgN/A
5:00 PM66 °FThunderstorms. Broken clouds.14 mph94%29.56 "Hg2 mi
4:30 PM70 °FThundershowers. Partly sunny.22 mph83%29.56 "HgN/A
4:00 PM66 °FThunderstorms. Passing clouds.16 mph94%29.62 "Hg6 mi
3:30 PM68 °FThunderstorms. Scattered clouds.16 mph83%29.62 "Hg4 mi
3:00 PM66 °FThunderstorms. Scattered clouds.15 mph88%29.68 "Hg4 mi
2:30 PM66 °FThunderstorms. Broken clouds.13 mph88%29.68 "Hg5 mi
2:00 PM70 °FScattered clouds.18 mph83%29.71 "HgN/A
1:30 PM73 °FPassing clouds.18 mph69%29.71 "HgN/A
1:00 PM72 °FSunny.16 mph78%29.68 "Hg10 mi
12:30 PM75 °FPassing clouds.13 mph69%29.68 "HgN/A
12:00 PM75 °FSunny.14 mph69%29.71 "Hg10 mi
Weather by CustomWeather, © 2014

See weather overviewHow to use our weather pages